Location: East Guldeford
(50.9500°N, 0.7500°E)
Time: 12:30:25
(UTC+00:00)

Cosmos 2084 Rocket - Visible Passes

Search period start: 20 September 2021 00:00
Search period end: 30 September 2021 00:00
Orbit: 514 x 666 km, 62.8° (Epoch: 19 September)

Date Brightness Start Highest point End Pass type
(mag) Time Alt. Az. Time Alt. Az. Time Alt. Az.
20 Sep 5.4 02:09:05 25° NE 02:09:05 25° NE 02:10:53 10° NE visible
20 Sep 5.1 03:45:35 17° NW 03:47:02 20° NNW 03:50:07 10° NNE visible
21 Sep 5.3 02:16:45 25° NNE 02:16:45 25° NNE 02:18:43 10° NE visible
21 Sep 5.4 03:53:16 13° NW 03:55:14 18° NNW 03:58:01 10° NNE visible
22 Sep 5.3 02:24:25 24° N 02:24:25 24° N 02:26:32 10° NE visible
22 Sep 5.6 04:00:56 10° NW 04:03:27 16° N 04:06:01 10° NNE visible
23 Sep 5.4 02:32:05 22° N 02:32:05 22° N 02:34:21 10° NNE visible
23 Sep 5.7 04:09:15 10° NW 04:11:42 15° N 04:14:10 10° NE visible
24 Sep 5.5 02:39:44 20° N 02:39:44 20° N 02:42:11 10° NNE visible
24 Sep 5.8 04:17:27 10° NNW 04:19:55 16° N 04:22:28 10° NE visible
25 Sep 5.6 02:47:23 18° NNW 02:47:23 18° NNW 02:50:06 10° NNE visible
25 Sep 5.8 04:25:29 10° NNW 04:28:09 17° N 04:30:53 10° NE visible
26 Sep 6.6 01:18:33 10° NE 01:18:33 10° NE 01:18:36 10° NE visible
26 Sep 5.6 02:55:04 16° NNW 02:55:32 16° N 02:58:06 10° NNE visible
26 Sep 5.7 04:33:25 10° NNW 04:36:22 19° NNE 04:39:23 10° ENE visible
27 Sep 6.6 01:26:13 11° NNE 01:26:13 11° NNE 01:26:25 10° NNE visible
27 Sep 5.7 03:02:44 14° NNW 03:03:46 15° N 03:06:14 10° NE visible
27 Sep 5.5 04:41:16 10° NNW 04:44:31 23° NNE 04:47:53 10° ENE visible
28 Sep 6.5 01:33:56 11° NNE 01:33:56 11° NNE 01:34:16 10° NNE visible
28 Sep 5.8 03:10:26 13° NNW 03:12:00 16° N 03:14:33 10° NE visible
28 Sep 5.2 04:49:04 10° NNW 04:52:38 28° NNE 04:56:19 10° E visible
29 Sep 6.5 01:41:40 12° NNE 01:41:40 12° NNE 01:42:10 10° NNE visible
29 Sep 5.8 03:18:11 12° NNW 03:20:14 17° N 03:22:57 10° NE visible
29 Sep 4.8 04:56:51 10° NW 05:00:41 37° NNE 05:04:40 10° ESE visible
